Weather History for KIKK - August, 2013

Change the Weather History Date:

Thursday, August 29, 2013

  Actual Average Record
Temperature  
Mean Temperature 78 °F -  
Max Temperature 87 °F 83 °F 98 °F (2010)
Min Temperature 69 °F 59 °F 40 °F (1986)
Cooling Degree Days 13    
Growing Degree Days 28 (Base 50)    
Moisture  
Dew Point 69 °F    
Average Humidity 80    
Maximum Humidity 98    
Minimum Humidity 50    
Precipitation  
Precipitation 0.00 in - - ()
Sea Level Pressure  
Sea Level Pressure 30.05 in    
Wind  
Wind Speed 4 mph (ENE)    
Max Wind Speed 7 mph    
Max Gust Speed -    
Visibility 8 miles    
Events      
Averages and records for this station are not official NWS values.
T = Trace of Precipitation, MM = Missing Value Source: NWS Daily Summary

Daily Weather History Graph

Daily Weather History Graph

Search for Another Location

Airport or City:

Trip Planner

Search our weather history database for the weather conditions in past years. The results will help you decide how hot, cold, wet, or windy it might be!

Date:

Astronomy

Aug. 29, 2013 Rise Set
Actual Time 6:15 AM CDT 7:28 PM CDT
Civil Twilight 5:46 AM CDT 7:56 PM CDT
Nautical Twilight 5:12 AM CDT 8:30 PM CDT
Astronomical Twilight 4:36 AM CDT 9:06 PM CDT
Moon 12:05 AM CDT 2:58 PM CDT
Length of Visible Light 14h 09m
Length of Day
13h 13m
Last Quarter, 38% of the Moon is Illuminated
Aug 29
Last Quarter
Sep 5
New
Sep 12
First Quarter
Sep 19
Full
Sep 26
Last Quarter

Hourly Weather History & Observations

Time (CDT) Temp. Heat Index Dew Point Humidity Pressure Visibility Wind Dir Wind Speed Gust Speed Precip Events Conditions
12:15 AM 70.9 °F - 69.3 °F 95% 30.04 in 4.0 mi NE 5.8 mph - N/A   Overcast
12:35 AM 70.9 °F - 69.3 °F 95% 30.05 in 4.0 mi NE 3.5 mph - N/A   Overcast
12:55 AM 71.1 °F - 69.4 °F 95% 30.05 in 4.0 mi NE 5.8 mph - N/A   Overcast
1:15 AM 70.7 °F - 69.4 °F 96% 30.05 in 4.0 mi NE 5.8 mph - N/A   Overcast
1:35 AM 70.7 °F - 69.4 °F 96% 30.05 in 4.0 mi NE 3.5 mph - N/A   Overcast
1:55 AM 70.9 °F - 69.4 °F 95% 30.05 in 4.0 mi ENE 5.8 mph - N/A   Overcast
2:15 AM 70.9 °F - 69.3 °F 95% 30.04 in 7.0 mi ENE 6.9 mph - N/A   Overcast
2:35 AM 70.7 °F - 69.1 °F 95% 30.05 in 5.0 mi ENE 4.6 mph - N/A   Overcast
2:55 AM 70.7 °F - 69.1 °F 95% 30.05 in 7.0 mi ENE 5.8 mph - N/A   Overcast
3:15 AM 70.3 °F - 69.1 °F 96% 30.05 in 5.0 mi ENE 5.8 mph - N/A   Overcast
3:35 AM 70.3 °F - 69.1 °F 96% 30.05 in 5.0 mi ENE 4.6 mph - N/A   Overcast
3:55 AM 70.2 °F - 69.3 °F 97% 30.05 in 4.0 mi NE 4.6 mph - N/A   Overcast
4:15 AM 70.2 °F - 69.3 °F 97% 30.05 in 4.0 mi ENE 3.5 mph - N/A   Overcast
4:35 AM 70.2 °F - 69.3 °F 97% 30.05 in 5.0 mi ENE 4.6 mph - N/A   Overcast
4:55 AM 70.2 °F - 69.3 °F 97% 30.05 in 4.0 mi NE 3.5 mph - N/A   Overcast
5:15 AM 70.2 °F - 69.1 °F 96% 30.05 in 5.0 mi NE 4.6 mph - N/A   Overcast
5:35 AM 70.2 °F - 68.9 °F 96% 30.05 in 5.0 mi ENE 4.6 mph - N/A   Overcast
5:55 AM 70.2 °F - 69.1 °F 96% 30.06 in 5.0 mi East 5.8 mph - N/A   Overcast
6:15 AM 70.2 °F - 68.9 °F 96% 30.06 in 5.0 mi East 5.8 mph - N/A   Overcast
6:35 AM 70.2 °F - 69.3 °F 97% 30.07 in 3.0 mi ENE 4.6 mph - N/A   Overcast
6:55 AM 70.2 °F - 69.3 °F 97% 30.07 in 3.0 mi East 5.8 mph - N/A   Overcast
7:15 AM 70.3 °F - 69.3 °F 96% 30.08 in 3.0 mi NE 6.9 mph - N/A   Overcast
7:35 AM 70.0 °F - 69.3 °F 98% 30.08 in 2.0 mi NE 6.9 mph - N/A   Overcast
7:55 AM 71.1 °F - 69.1 °F 93% 30.09 in 5.0 mi East 5.8 mph - N/A   Overcast
8:15 AM 71.1 °F - 68.9 °F 93% 30.09 in 5.0 mi ENE 5.8 mph - N/A   Overcast
8:35 AM 72.5 °F - 68.9 °F 88% 30.09 in 7.0 mi East 4.6 mph - N/A   Overcast
8:55 AM 72.5 °F - 68.9 °F 88% 30.09 in 7.0 mi ENE 3.5 mph - N/A   Overcast
9:15 AM 73.8 °F - 68.9 °F 85% 30.09 in 7.0 mi East 5.8 mph - N/A   Overcast
9:35 AM 75.2 °F - 69.4 °F 82% 30.09 in 10.0 mi East 4.6 mph - N/A   Overcast
9:55 AM 76.5 °F - 69.8 °F 80% 30.10 in 10.0 mi NE 4.6 mph - N/A   Mostly Cloudy
10:15 AM 77.9 °F - 70.2 °F 77% 30.09 in 10.0 mi NE 3.5 mph - N/A   Scattered Clouds
10:35 AM 78.8 °F - 70.3 °F 75% 30.09 in 10.0 mi ENE 4.6 mph - N/A   Clear
10:55 AM 79.7 °F - 70.5 °F 73% 30.09 in 10.0 mi ESE 4.6 mph - N/A   Scattered Clouds
11:15 AM 80.6 °F 84.1 °F 70.5 °F 71% 30.09 in 10.0 mi East 3.5 mph - N/A   Scattered Clouds
11:35 AM 80.4 °F 83.8 °F 70.3 °F 71% 30.09 in 10.0 mi ENE 3.5 mph - N/A   Mostly Cloudy
11:55 AM 79.7 °F - 69.4 °F 71% 30.09 in 10.0 mi Calm Calm - N/A   Scattered Clouds
12:15 PM 80.2 °F 83.3 °F 69.6 °F 70% 30.09 in 10.0 mi Calm Calm - N/A   Scattered Clouds
12:35 PM 81.7 °F 85.2 °F 69.8 °F 67% 30.08 in 10.0 mi Calm Calm - N/A   Clear
12:55 PM 83.8 °F 88.1 °F 69.8 °F 63% 30.07 in 10.0 mi Calm Calm - N/A   Scattered Clouds
1:15 PM 84.4 °F 88.5 °F 69.8 °F 61% 30.07 in 10.0 mi ESE 4.6 mph - N/A   Clear
1:35 PM 85.3 °F 88.8 °F 68.7 °F 57% 30.07 in 10.0 mi NE 3.5 mph - N/A   Clear
1:55 PM 84.2 °F 87.6 °F 68.5 °F 59% 30.06 in 10.0 mi East 3.5 mph - N/A   Clear
2:15 PM 86.2 °F 90.0 °F 68.9 °F 56% 30.05 in 10.0 mi Calm Calm - N/A   Clear
2:35 PM 85.5 °F 88.8 °F 68.2 °F 56% 30.04 in 10.0 mi Calm Calm - N/A   Clear
2:55 PM 85.8 °F 88.2 °F 66.6 °F 52% 30.04 in 10.0 mi Calm Calm - N/A   Clear
3:15 PM 86.0 °F 88.5 °F 66.6 °F 52% 30.04 in 10.0 mi Calm Calm - N/A   Clear
3:35 PM 87.3 °F 89.8 °F 66.7 °F 50% 30.03 in 10.0 mi East 3.5 mph - N/A   Clear
3:55 PM 86.4 °F 88.7 °F 66.0 °F 51% 30.03 in 10.0 mi Calm Calm - N/A   Clear
4:15 PM 86.5 °F 89.0 °F 66.2 °F 51% 30.02 in 10.0 mi Calm Calm - N/A   Clear
4:35 PM 86.9 °F 89.9 °F 67.5 °F 52% 30.02 in 10.0 mi Calm Calm - N/A   Clear
4:55 PM 87.1 °F 90.6 °F 67.8 °F 53% 30.02 in 10.0 mi SSE 3.5 mph - N/A   Clear
5:15 PM 86.7 °F 90.3 °F 68.2 °F 54% 30.01 in 10.0 mi SSE 4.6 mph - N/A   Clear
5:35 PM 86.2 °F 89.7 °F 68.2 °F 55% 30.01 in 10.0 mi South 5.8 mph - N/A   Clear
5:55 PM 85.5 °F 88.5 °F 67.5 °F 55% 30.01 in 10.0 mi Calm Calm - N/A   Clear
6:15 PM 84.7 °F 88.2 °F 68.5 °F 58% 30.01 in 10.0 mi Calm Calm - N/A   Clear
6:35 PM 84.2 °F 87.9 °F 68.9 °F 60% 30.01 in 10.0 mi Calm Calm - N/A   Clear
6:55 PM 82.8 °F 86.4 °F 69.4 °F 64% 30.01 in 10.0 mi Calm Calm - N/A   Clear
7:15 PM 80.1 °F 83.0 °F 69.6 °F 70% 30.01 in 10.0 mi South 3.5 mph - N/A   Clear
7:35 PM 77.5 °F - 69.3 °F 76% 30.01 in 10.0 mi Calm Calm - N/A   Clear
7:55 PM 75.4 °F - 69.1 °F 81% 30.01 in 10.0 mi Calm Calm - N/A   Clear
8:15 PM 74.7 °F - 69.3 °F 83% 30.01 in 7.0 mi Calm Calm - N/A   Clear
8:35 PM 74.1 °F - 69.8 °F 86% 30.02 in 10.0 mi Calm Calm - N/A   Clear
8:55 PM 73.6 °F - 69.8 °F 88% 30.02 in 10.0 mi Calm Calm - N/A   Clear
9:15 PM 72.3 °F - 68.9 °F 89% 30.02 in 10.0 mi Calm Calm - N/A   Clear
9:35 PM 72.5 °F - 68.7 °F 88% 30.02 in 10.0 mi Calm Calm - N/A   Clear
9:55 PM 72.1 °F - 68.7 °F 89% 30.01 in 10.0 mi Calm Calm - N/A   Clear
10:15 PM 72.5 °F - 68.7 °F 88% 30.01 in 10.0 mi Calm Calm - N/A   Clear
10:35 PM 71.8 °F - 68.2 °F 88% 30.01 in 10.0 mi Calm Calm - N/A   Clear
10:55 PM 71.6 °F - 68.5 °F 90% 30.01 in 10.0 mi Calm Calm - N/A   Clear
11:15 PM 71.8 °F - 68.5 °F 89% 30.01 in 10.0 mi Calm Calm - N/A   Clear
11:35 PM 69.3 °F - 67.5 °F 94% 30.00 in 10.0 mi Calm Calm - N/A   Clear
11:55 PM 69.1 °F - 67.6 °F 95% 30.00 in 7.0 mi Calm Calm - N/A   Clear